This is the latest recevied weather packets stored in our database for station/object SP1BMW-13. If no packets are shown the sender has not sent any weather packets the latest 10 day(s).
| Time | Temp. | Humidity | Pressure | Rain* | Wind** | Luminosity | Snow |
|---|---|---|---|---|---|---|---|
| 1778153574 | 12.22° C | 57% | 1014 hPa | 0 mm | 0.45 m/s, 316° | 320 W/m² | - |
| 1778153514 | 12.22° C | 58% | 1013.8 hPa | 0 mm | 0.45 m/s, 354° | 312 W/m² | - |
| 1778153454 | 12.22° C | 56% | 1013.8 hPa | 0 mm | 0.45 m/s, 24° | 310 W/m² | - |
| 1778153394 | 12.22° C | 55% | 1013.8 hPa | 0 mm | 0.89 m/s, 310° | 303 W/m² | - |
| 1778153334 | 12.22° C | 56% | 1014 hPa | 0 mm | 0 m/s | 299 W/m² | - |
| 1778153274 | 12.22° C | 55% | 1014 hPa | 0 mm | 0.45 m/s, 65° | 298 W/m² | - |
| 1778153213 | 12.22° C | 56% | 1014 hPa | 0 mm | 0.45 m/s, 43° | 297 W/m² | - |
| 1778153154 | 12.22° C | 57% | 1014 hPa | 0 mm | 2.24 m/s, 41° | 294 W/m² | - |
| 1778153093 | 12.22° C | 58% | 1014 hPa | 0 mm | 1.79 m/s, 306° | 293 W/m² | - |
| 1778153034 | 12.22° C | 60% | 1013.9 hPa | 0 mm | 0.45 m/s, 7° | 292 W/m² | - |
| 1778152974 | 12.22° C | 59% | 1013.8 hPa | 0 mm | 1.34 m/s, 338° | 292 W/m² | - |
| 1778152913 | 12.22° C | 58% | 1014.1 hPa | 0 mm | 0.45 m/s, 313° | 292 W/m² | - |
| 1778152854 | 12.22° C | 59% | 1013.9 hPa | 0 mm | 1.79 m/s, 343° | 295 W/m² | - |
| 1778152794 | 12.22° C | 57% | 1013.9 hPa | 0 mm | 1.34 m/s, 245° | 294 W/m² | - |
| 1778152733 | 12.22° C | 56% | 1013.9 hPa | 0 mm | 2.24 m/s, 49° | 297 W/m² | - |
| 1778152673 | 12.22° C | 57% | 1014 hPa | 0 mm | 1.34 m/s, 32° | 293 W/m² | - |
| 1778152614 | 12.22° C | 59% | 1013.8 hPa | 0 mm | 1.34 m/s, 69° | 288 W/m² | - |
| 1778152553 | 12.22° C | 59% | 1013.9 hPa | 0 mm | 0.45 m/s, 38° | 285 W/m² | - |
| 1778152494 | 12.22° C | 58% | 1013.9 hPa | 0 mm | 0.45 m/s, 34° | 283 W/m² | - |
| 1778152434 | 12.22° C | 57% | 1013.9 hPa | 0 mm | 0.89 m/s, 26° | 279 W/m² | - |
| 1778152373 | 12.22° C | 57% | 1013.9 hPa | 0 mm | 1.34 m/s, 40° | 283 W/m² | - |
| 1778152313 | 12.22° C | 57% | 1013.8 hPa | 0 mm | 0.45 m/s, 327° | 291 W/m² | - |
| 1778152253 | 12.22° C | 59% | 1013.8 hPa | 0 mm | 0 m/s | 298 W/m² | - |
| 1778152193 | 12.78° C | 57% | 1013.9 hPa | 0 mm | 0.45 m/s, 324° | 304 W/m² | - |
| 1778152134 | 12.78° C | 59% | 1013.9 hPa | 0 mm | 1.34 m/s, 53° | 311 W/m² | - |
* Rain latest hour (hover to see other rain measurements)
** Current wind speed in m/s (hover to see current wind gust speed)